Year,Month,Day,Hour,Minute,Value (Times are PST for temperature in C)
2019,08,02,00,00,17.50
2019,08,02,00,01,17.50
2019,08,02,00,02,17.50
2019,08,02,00,03,17.50
2019,08,02,00,04,17.50
2019,08,02,00,05,17.50
2019,08,02,00,06,17.50
2019,08,02,00,07,17.50
2019,08,02,00,08,17.50
2019,08,02,00,09,17.50
2019,08,02,00,10,17.50
2019,08,02,00,11,17.50
2019,08,02,00,12,17.50
2019,08,02,00,13,17.50
2019,08,02,00,14,17.50
2019,08,02,00,15,17.50
2019,08,02,00,16,17.50
2019,08,02,00,17,17.50
2019,08,02,00,18,17.50
2019,08,02,00,19,17.50
2019,08,02,00,20,17.50
2019,08,02,00,21,17.50
2019,08,02,00,22,17.40
2019,08,02,00,23,17.40
2019,08,02,00,24,17.40
2019,08,02,00,25,17.40
2019,08,02,00,26,17.40
2019,08,02,00,27,17.40
2019,08,02,00,28,17.40
2019,08,02,00,29,17.40
2019,08,02,00,30,17.40
2019,08,02,00,31,17.40
2019,08,02,00,32,17.40
2019,08,02,00,33,17.40
2019,08,02,00,34,17.40
2019,08,02,00,35,17.40
2019,08,02,00,36,17.40
2019,08,02,00,37,17.40
2019,08,02,00,38,17.40
2019,08,02,00,39,17.40
2019,08,02,00,40,17.40
2019,08,02,00,41,17.40
2019,08,02,00,42,17.40
2019,08,02,00,43,17.40
2019,08,02,00,44,17.40
2019,08,02,00,45,17.40
2019,08,02,00,46,17.40
2019,08,02,00,47,17.40
2019,08,02,00,48,17.40
2019,08,02,00,49,17.40
2019,08,02,00,50,17.40
2019,08,02,00,51,17.40
2019,08,02,00,52,17.40
2019,08,02,00,53,17.40
2019,08,02,00,54,17.40
2019,08,02,00,55,17.40
2019,08,02,00,56,17.40
2019,08,02,00,57,17.40
2019,08,02,00,58,17.40
2019,08,02,00,59,17.40
2019,08,02,01,00,17.40
2019,08,02,01,01,17.40
2019,08,02,01,02,17.40
2019,08,02,01,03,17.40
2019,08,02,01,04,17.40
2019,08,02,01,05,17.40
2019,08,02,01,06,17.40
2019,08,02,01,07,17.40
2019,08,02,01,08,17.40
2019,08,02,01,09,17.40
2019,08,02,01,10,17.40
2019,08,02,01,11,17.40
2019,08,02,01,12,17.40
2019,08,02,01,13,17.40
2019,08,02,01,14,17.40
2019,08,02,01,15,17.40
2019,08,02,01,16,17.40
2019,08,02,01,17,17.40
2019,08,02,01,18,17.40
2019,08,02,01,19,17.40
2019,08,02,01,20,17.40
2019,08,02,01,21,17.40
2019,08,02,01,22,17.40
2019,08,02,01,23,17.40
2019,08,02,01,24,17.40
2019,08,02,01,25,17.40
2019,08,02,01,26,17.40
2019,08,02,01,27,17.40
2019,08,02,01,28,17.40
2019,08,02,01,29,17.40
2019,08,02,01,30,17.40
2019,08,02,01,31,17.40
2019,08,02,01,32,17.40
2019,08,02,01,33,17.40
2019,08,02,01,34,17.40
2019,08,02,01,35,17.40
2019,08,02,01,36,17.40
2019,08,02,01,37,17.40
2019,08,02,01,38,17.50
2019,08,02,01,39,17.40
2019,08,02,01,40,17.40
2019,08,02,01,41,17.40
2019,08,02,01,42,17.40
2019,08,02,01,43,17.50
2019,08,02,01,44,17.40
2019,08,02,01,45,17.50
2019,08,02,01,46,17.50
2019,08,02,01,47,17.40
2019,08,02,01,48,17.40
2019,08,02,01,49,17.40
2019,08,02,01,50,17.40
2019,08,02,01,51,17.50
2019,08,02,01,52,17.40
2019,08,02,01,53,17.50
2019,08,02,01,54,17.50
2019,08,02,01,55,17.50
2019,08,02,01,56,17.50
2019,08,02,01,57,17.50
2019,08,02,01,58,17.50
2019,08,02,01,59,17.50
2019,08,02,02,00,17.50
2019,08,02,02,01,17.50
2019,08,02,02,02,17.40
2019,08,02,02,03,17.50
2019,08,02,02,04,17.50
2019,08,02,02,05,17.50
2019,08,02,02,06,17.50
2019,08,02,02,07,17.50
2019,08,02,02,08,17.50
2019,08,02,02,09,17.40
2019,08,02,02,10,17.50
2019,08,02,02,11,17.50
2019,08,02,02,12,17.40
2019,08,02,02,13,17.40
2019,08,02,02,14,17.40
2019,08,02,02,15,17.40
2019,08,02,02,16,17.40
2019,08,02,02,17,17.40
2019,08,02,02,18,17.40
2019,08,02,02,19,17.40
2019,08,02,02,20,17.40
2019,08,02,02,21,17.40
2019,08,02,02,22,17.40
2019,08,02,02,23,17.40
2019,08,02,02,24,17.40
2019,08,02,02,25,17.40
2019,08,02,02,26,17.40
2019,08,02,02,27,17.40
2019,08,02,02,28,17.40
2019,08,02,02,29,17.40
2019,08,02,02,30,17.30
2019,08,02,02,31,17.30
2019,08,02,02,32,17.30
2019,08,02,02,33,17.30
2019,08,02,02,34,17.30
2019,08,02,02,35,17.30
2019,08,02,02,36,17.30
2019,08,02,02,37,17.30
2019,08,02,02,38,17.30
2019,08,02,02,39,17.30
2019,08,02,02,40,17.30
2019,08,02,02,41,17.30
2019,08,02,02,42,17.30
2019,08,02,02,43,17.30
2019,08,02,02,44,17.30
2019,08,02,02,45,17.30
2019,08,02,02,46,17.30
2019,08,02,02,47,17.30
2019,08,02,02,48,17.30
2019,08,02,02,49,17.30
2019,08,02,02,50,17.30
2019,08,02,02,51,17.30
2019,08,02,02,52,17.30
2019,08,02,02,53,17.30
2019,08,02,02,54,17.30
2019,08,02,02,55,17.30
2019,08,02,02,56,17.30
2019,08,02,02,57,17.30
2019,08,02,02,58,17.30
2019,08,02,02,59,17.30
2019,08,02,03,00,17.30
2019,08,02,03,01,17.30
2019,08,02,03,02,17.30
2019,08,02,03,03,17.30
2019,08,02,03,04,17.30
2019,08,02,03,05,17.30
2019,08,02,03,06,17.30
2019,08,02,03,07,17.30
2019,08,02,03,08,17.30
2019,08,02,03,09,17.30
2019,08,02,03,10,17.30
2019,08,02,03,11,17.30
2019,08,02,03,12,17.30
2019,08,02,03,13,17.30
2019,08,02,03,14,17.30
2019,08,02,03,15,17.30
2019,08,02,03,16,17.30
2019,08,02,03,17,17.30
2019,08,02,03,18,17.30
2019,08,02,03,19,17.30
2019,08,02,03,20,17.30
2019,08,02,03,21,17.30
2019,08,02,03,22,17.30
2019,08,02,03,23,17.30
2019,08,02,03,24,17.30
2019,08,02,03,25,17.30
2019,08,02,03,26,17.30
2019,08,02,03,27,17.30
2019,08,02,03,28,17.30
2019,08,02,03,29,17.30
2019,08,02,03,30,17.30
2019,08,02,03,31,17.30
2019,08,02,03,32,17.30
2019,08,02,03,33,17.30
2019,08,02,03,34,17.30
2019,08,02,03,35,17.30
2019,08,02,03,36,17.30
2019,08,02,03,37,17.40
2019,08,02,03,38,17.30
2019,08,02,03,39,17.30
2019,08,02,03,40,17.30
2019,08,02,03,41,17.40
2019,08,02,03,42,17.30
2019,08,02,03,43,17.30
2019,08,02,03,44,17.30
2019,08,02,03,45,17.30
2019,08,02,03,46,17.30
2019,08,02,03,47,17.30
2019,08,02,03,48,17.30
2019,08,02,03,49,17.30
2019,08,02,03,50,17.30
2019,08,02,03,51,17.30
2019,08,02,03,52,17.30
2019,08,02,03,53,17.30
2019,08,02,03,54,17.30
2019,08,02,03,55,17.30
2019,08,02,03,56,17.30
2019,08,02,03,57,17.30
2019,08,02,03,58,17.30
2019,08,02,03,59,17.30
2019,08,02,04,00,17.30
2019,08,02,04,01,17.30
2019,08,02,04,02,17.30
2019,08,02,04,03,17.30
2019,08,02,04,04,17.30
2019,08,02,04,05,17.30
2019,08,02,04,06,17.30
2019,08,02,04,07,17.30
2019,08,02,04,08,17.30
2019,08,02,04,09,17.30
2019,08,02,04,10,17.30
2019,08,02,04,11,17.30
2019,08,02,04,12,17.30
2019,08,02,04,13,17.30
2019,08,02,04,14,17.30
2019,08,02,04,15,17.30
2019,08,02,04,16,17.30
2019,08,02,04,17,17.20
2019,08,02,04,18,17.30
2019,08,02,04,19,17.30
2019,08,02,04,20,17.30
2019,08,02,04,21,17.20
2019,08,02,04,22,17.30
2019,08,02,04,23,17.20
2019,08,02,04,24,17.20
2019,08,02,04,25,17.20
2019,08,02,04,26,17.20
2019,08,02,04,27,17.20
2019,08,02,04,28,17.20
2019,08,02,04,29,17.20
2019,08,02,04,30,17.20
2019,08,02,04,31,17.20
2019,08,02,04,32,17.20
2019,08,02,04,33,17.20
2019,08,02,04,34,17.20
2019,08,02,04,35,17.20
2019,08,02,04,36,17.20
2019,08,02,04,37,17.20
2019,08,02,04,38,17.20
2019,08,02,04,39,17.20
2019,08,02,04,40,17.20
2019,08,02,04,41,17.20
2019,08,02,04,42,17.20
2019,08,02,04,43,17.20
2019,08,02,04,44,17.20
2019,08,02,04,45,17.20
2019,08,02,04,46,17.20
2019,08,02,04,47,17.30
2019,08,02,04,48,17.30
2019,08,02,04,49,17.30
2019,08,02,04,50,17.30
2019,08,02,04,51,17.30
2019,08,02,04,52,17.30
2019,08,02,04,53,17.30
2019,08,02,04,54,17.30
2019,08,02,04,55,17.40
2019,08,02,04,56,17.40
2019,08,02,04,57,17.40
2019,08,02,04,58,17.40
2019,08,02,04,59,17.40
2019,08,02,05,00,17.40
2019,08,02,05,01,17.40
2019,08,02,05,02,17.40
2019,08,02,05,03,17.40
2019,08,02,05,04,17.40
2019,08,02,05,05,17.40
2019,08,02,05,06,17.50
2019,08,02,05,07,17.40
2019,08,02,05,08,17.40
2019,08,02,05,09,17.40
2019,08,02,05,10,17.40
2019,08,02,05,11,17.40
2019,08,02,05,12,17.40
2019,08,02,05,13,17.40
2019,08,02,05,14,17.50
2019,08,02,05,15,17.50
2019,08,02,05,16,17.50
2019,08,02,05,17,17.50
2019,08,02,05,18,17.50
2019,08,02,05,19,17.50
2019,08,02,05,20,17.50
2019,08,02,05,21,17.50
2019,08,02,05,22,17.40
2019,08,02,05,23,17.40
2019,08,02,05,24,17.50
2019,08,02,05,25,17.40
2019,08,02,05,26,17.50
2019,08,02,05,27,17.40
2019,08,02,05,28,17.40
2019,08,02,05,29,17.40
2019,08,02,05,30,17.40
2019,08,02,05,31,17.40
2019,08,02,05,32,17.40
2019,08,02,05,33,17.40
2019,08,02,05,34,17.40
2019,08,02,05,35,17.40
2019,08,02,05,36,17.40
2019,08,02,05,37,17.40
2019,08,02,05,38,17.50
2019,08,02,05,39,17.50
2019,08,02,05,40,17.50
2019,08,02,05,41,17.50
2019,08,02,05,42,17.60
2019,08,02,05,43,17.60
2019,08,02,05,44,17.60
2019,08,02,05,45,17.60
2019,08,02,05,46,17.60
2019,08,02,05,47,17.60
2019,08,02,05,48,17.60
2019,08,02,05,49,17.50
2019,08,02,05,50,17.50
2019,08,02,05,51,17.50
2019,08,02,05,52,17.50
2019,08,02,05,53,17.50
2019,08,02,05,54,17.50
2019,08,02,05,55,17.50
2019,08,02,05,56,17.50
2019,08,02,05,57,17.50
2019,08,02,05,58,17.50
2019,08,02,05,59,17.50
2019,08,02,06,00,17.60
2019,08,02,06,01,17.60
2019,08,02,06,02,17.50
2019,08,02,06,03,17.50
2019,08,02,06,04,17.50
2019,08,02,06,05,17.50
2019,08,02,06,06,17.50
2019,08,02,06,07,17.50
2019,08,02,06,08,17.50
2019,08,02,06,09,17.50
2019,08,02,06,10,17.50
2019,08,02,06,11,17.50
2019,08,02,06,12,17.50
2019,08,02,06,13,17.50
2019,08,02,06,14,17.50
2019,08,02,06,15,17.50
2019,08,02,06,16,17.50
2019,08,02,06,17,17.50
2019,08,02,06,18,17.50
2019,08,02,06,19,17.50
2019,08,02,06,20,17.50
2019,08,02,06,21,17.50
2019,08,02,06,22,17.50
2019,08,02,06,23,17.50
2019,08,02,06,24,17.50
2019,08,02,06,25,17.50
2019,08,02,06,26,17.50
2019,08,02,06,27,17.50
2019,08,02,06,28,17.40
2019,08,02,06,29,17.40
2019,08,02,06,30,17.40
2019,08,02,06,31,17.40
2019,08,02,06,32,17.40
2019,08,02,06,33,17.40
2019,08,02,06,34,17.40
2019,08,02,06,35,17.30
2019,08,02,06,36,17.30
2019,08,02,06,37,17.30
2019,08,02,06,38,17.30
2019,08,02,06,39,17.30
2019,08,02,06,40,17.20
2019,08,02,06,41,17.20
2019,08,02,06,42,17.20
2019,08,02,06,43,17.20
2019,08,02,06,44,17.20
2019,08,02,06,45,17.20
2019,08,02,06,46,17.30
2019,08,02,06,47,17.30
2019,08,02,06,48,17.30
2019,08,02,06,49,17.30
2019,08,02,06,50,17.30
2019,08,02,06,51,17.40
2019,08,02,06,52,17.40
2019,08,02,06,53,17.40
2019,08,02,06,54,17.40
2019,08,02,06,55,17.40
2019,08,02,06,56,17.40
2019,08,02,06,57,17.50
2019,08,02,06,58,17.50
2019,08,02,06,59,17.50
2019,08,02,07,00,17.50
2019,08,02,07,01,17.50
2019,08,02,07,02,17.60
2019,08,02,07,03,17.60
2019,08,02,07,04,17.60
2019,08,02,07,05,17.60
2019,08,02,07,06,17.60
2019,08,02,07,07,17.60
2019,08,02,07,08,17.60
2019,08,02,07,09,17.60
2019,08,02,07,10,17.60
2019,08,02,07,11,17.60
2019,08,02,07,12,17.60
2019,08,02,07,13,17.60
2019,08,02,07,14,17.60
2019,08,02,07,15,17.60
2019,08,02,07,16,17.60
2019,08,02,07,17,17.70
2019,08,02,07,18,17.60
2019,08,02,07,19,17.70
2019,08,02,07,20,17.70
2019,08,02,07,21,17.80
2019,08,02,07,22,17.80
2019,08,02,07,23,17.90
2019,08,02,07,24,17.90
2019,08,02,07,25,18.00
2019,08,02,07,26,18.10
2019,08,02,07,27,18.10
2019,08,02,07,28,18.10
2019,08,02,07,29,18.20
2019,08,02,07,30,18.20
2019,08,02,07,31,18.20
2019,08,02,07,32,18.20
2019,08,02,07,33,18.20
2019,08,02,07,34,18.30
2019,08,02,07,35,18.30
2019,08,02,07,36,18.30
2019,08,02,07,37,18.30
2019,08,02,07,38,18.30
2019,08,02,07,39,18.30
2019,08,02,07,40,18.30
2019,08,02,07,41,18.30
2019,08,02,07,42,18.30
2019,08,02,07,43,18.30
2019,08,02,07,44,18.30
2019,08,02,07,45,18.30
2019,08,02,07,46,18.30
2019,08,02,07,47,18.30
2019,08,02,07,48,18.30
2019,08,02,07,49,18.30
2019,08,02,07,50,18.30
2019,08,02,07,51,18.30
2019,08,02,07,52,18.30
2019,08,02,07,53,18.30
2019,08,02,07,54,18.30
2019,08,02,07,55,18.40
2019,08,02,07,56,18.40
2019,08,02,07,57,18.30
2019,08,02,07,58,18.40
2019,08,02,07,59,18.40
2019,08,02,08,00,18.40
2019,08,02,08,01,18.40
2019,08,02,08,02,18.40
2019,08,02,08,03,18.40
2019,08,02,08,04,18.40
2019,08,02,08,05,18.40
2019,08,02,08,06,18.40
2019,08,02,08,07,18.30
2019,08,02,08,08,18.40
2019,08,02,08,09,18.40
2019,08,02,08,10,18.40
2019,08,02,08,11,18.40
2019,08,02,08,12,18.40
2019,08,02,08,13,18.40
2019,08,02,08,14,18.40
2019,08,02,08,15,18.40
2019,08,02,08,16,18.40
2019,08,02,08,17,18.50
2019,08,02,08,18,18.50
2019,08,02,08,19,18.60
2019,08,02,08,20,18.60
2019,08,02,08,21,18.70
2019,08,02,08,22,18.80
2019,08,02,08,23,19.00
2019,08,02,08,24,19.10
2019,08,02,08,25,19.20
2019,08,02,08,26,19.30
2019,08,02,08,27,19.40
2019,08,02,08,28,19.60
2019,08,02,08,29,19.70
2019,08,02,08,30,19.80
2019,08,02,08,31,19.90
2019,08,02,08,32,20.00
2019,08,02,08,33,20.10
2019,08,02,08,34,20.20
2019,08,02,08,35,20.20
2019,08,02,08,36,20.30
2019,08,02,08,37,20.30
2019,08,02,08,38,20.30
2019,08,02,08,39,20.30
2019,08,02,08,40,20.30
2019,08,02,08,41,20.40
2019,08,02,08,42,20.40
2019,08,02,08,43,20.40
2019,08,02,08,44,20.40
2019,08,02,08,45,20.40
2019,08,02,08,46,20.40
2019,08,02,08,47,20.40
2019,08,02,08,48,20.40
2019,08,02,08,49,20.40
2019,08,02,08,50,20.40
2019,08,02,08,51,20.40
2019,08,02,08,52,20.30
2019,08,02,08,53,20.30
2019,08,02,08,54,20.30
2019,08,02,08,55,20.30
2019,08,02,08,56,20.30
2019,08,02,08,57,20.30
2019,08,02,08,58,20.30
2019,08,02,08,59,20.30
2019,08,02,09,00,20.30
2019,08,02,09,01,20.40
2019,08,02,09,02,20.40
2019,08,02,09,03,20.50
2019,08,02,09,04,20.50
2019,08,02,09,05,20.60
2019,08,02,09,06,20.60
2019,08,02,09,07,20.60
2019,08,02,09,08,20.60
2019,08,02,09,09,20.60
2019,08,02,09,10,20.60
2019,08,02,09,11,20.60
2019,08,02,09,12,20.60
2019,08,02,09,13,20.60
2019,08,02,09,14,20.60
2019,08,02,09,15,20.60
2019,08,02,09,16,20.70
2019,08,02,09,17,20.70
2019,08,02,09,18,20.80
2019,08,02,09,19,20.80
2019,08,02,09,20,20.80
2019,08,02,09,21,20.80
2019,08,02,09,22,20.90
2019,08,02,09,23,20.90
2019,08,02,09,24,21.00
2019,08,02,09,25,21.00
2019,08,02,09,26,21.10
2019,08,02,09,27,21.20
2019,08,02,09,28,21.20
2019,08,02,09,29,21.20
2019,08,02,09,30,21.20
2019,08,02,09,31,21.20
2019,08,02,09,32,21.20
2019,08,02,09,33,21.20
2019,08,02,09,34,21.20
2019,08,02,09,35,21.10
2019,08,02,09,36,21.10
2019,08,02,09,37,21.10
2019,08,02,09,38,21.10
2019,08,02,09,39,21.20
2019,08,02,09,40,21.20
2019,08,02,09,41,21.30
2019,08,02,09,42,21.30
2019,08,02,09,43,21.20
2019,08,02,09,44,21.20
2019,08,02,09,45,21.30
2019,08,02,09,46,21.30
2019,08,02,09,47,21.30
2019,08,02,09,48,21.40
2019,08,02,09,49,21.50
2019,08,02,09,50,21.60
2019,08,02,09,51,21.60
2019,08,02,09,52,21.60
2019,08,02,09,53,21.60
2019,08,02,09,54,21.50
2019,08,02,09,55,21.50
2019,08,02,09,56,21.40
2019,08,02,09,57,21.40
2019,08,02,09,58,21.30
2019,08,02,09,59,21.30
2019,08,02,10,00,21.30
2019,08,02,10,01,21.40
2019,08,02,10,02,21.40
2019,08,02,10,03,21.40
2019,08,02,10,04,21.40
2019,08,02,10,05,21.30
2019,08,02,10,06,21.40
2019,08,02,10,07,21.40
2019,08,02,10,08,21.50
2019,08,02,10,09,21.50
2019,08,02,10,10,21.70
2019,08,02,10,11,21.80
2019,08,02,10,12,21.90
2019,08,02,10,13,22.00
2019,08,02,10,14,22.00
2019,08,02,10,15,22.10
2019,08,02,10,16,22.10
2019,08,02,10,17,22.10
2019,08,02,10,18,22.10
2019,08,02,10,19,22.10
2019,08,02,10,20,22.20
2019,08,02,10,21,22.20
2019,08,02,10,22,22.20
2019,08,02,10,23,22.20
2019,08,02,10,24,22.10
2019,08,02,10,25,22.20
2019,08,02,10,26,22.20
2019,08,02,10,27,22.20
2019,08,02,10,28,22.30
2019,08,02,10,29,22.30
2019,08,02,10,30,22.30
2019,08,02,10,31,22.30
2019,08,02,10,32,22.20
2019,08,02,10,33,22.10
2019,08,02,10,34,21.90
2019,08,02,10,35,21.80
2019,08,02,10,36,21.70
2019,08,02,10,37,21.70
2019,08,02,10,38,21.70
2019,08,02,10,39,21.80
2019,08,02,10,40,22.00
2019,08,02,10,41,22.10
2019,08,02,10,42,22.20
2019,08,02,10,43,22.30
2019,08,02,10,44,22.30
2019,08,02,10,45,22.30
2019,08,02,10,46,22.40
2019,08,02,10,47,22.40
2019,08,02,10,48,22.40
2019,08,02,10,49,22.50
2019,08,02,10,50,22.40
2019,08,02,10,51,22.30
2019,08,02,10,52,22.20
2019,08,02,10,53,22.20
2019,08,02,10,54,22.20
2019,08,02,10,55,22.30
2019,08,02,10,56,22.40
2019,08,02,10,57,22.40
2019,08,02,10,58,22.50
2019,08,02,10,59,22.60
2019,08,02,11,00,22.70
2019,08,02,11,01,22.70
2019,08,02,11,02,22.70
2019,08,02,11,03,22.70
2019,08,02,11,04,22.60
2019,08,02,11,05,22.40
2019,08,02,11,06,22.30
2019,08,02,11,07,22.30
2019,08,02,11,08,22.30
2019,08,02,11,09,22.40
2019,08,02,11,10,22.50
2019,08,02,11,11,22.60
2019,08,02,11,12,22.60
2019,08,02,11,13,22.60
2019,08,02,11,14,22.50
2019,08,02,11,15,22.50
2019,08,02,11,16,22.60
2019,08,02,11,17,22.50
2019,08,02,11,18,22.50
2019,08,02,11,19,22.60
2019,08,02,11,20,22.60
2019,08,02,11,21,22.60
2019,08,02,11,22,22.70
2019,08,02,11,23,22.80
2019,08,02,11,24,22.80
2019,08,02,11,25,22.70
2019,08,02,11,26,22.60
2019,08,02,11,27,22.60
2019,08,02,11,28,22.60
2019,08,02,11,29,22.60
2019,08,02,11,30,22.60
2019,08,02,11,31,22.70
2019,08,02,11,32,22.70
2019,08,02,11,33,22.70
2019,08,02,11,34,22.70
2019,08,02,11,35,22.70
2019,08,02,11,36,22.60
2019,08,02,11,37,22.30
2019,08,02,11,38,22.20
2019,08,02,11,39,22.10
2019,08,02,11,40,22.00
2019,08,02,11,41,21.90
2019,08,02,11,42,21.90
2019,08,02,11,43,21.80
2019,08,02,11,44,21.70
2019,08,02,11,45,21.70
2019,08,02,11,46,21.70
2019,08,02,11,47,21.70
2019,08,02,11,48,21.70
2019,08,02,11,49,21.60
2019,08,02,11,50,21.70
2019,08,02,11,51,21.70
2019,08,02,11,52,21.80
2019,08,02,11,53,21.80
2019,08,02,11,54,21.80
2019,08,02,11,55,21.90
2019,08,02,11,56,22.00
2019,08,02,11,57,22.10
2019,08,02,11,58,22.20
2019,08,02,11,59,22.40
2019,08,02,12,00,22.40
2019,08,02,12,01,22.60
2019,08,02,12,02,22.70
2019,08,02,12,03,22.80
2019,08,02,12,04,23.00
2019,08,02,12,05,23.00
2019,08,02,12,06,22.90
2019,08,02,12,07,22.90
2019,08,02,12,08,22.80
2019,08,02,12,09,22.60
2019,08,02,12,10,22.60
2019,08,02,12,11,22.60
2019,08,02,12,12,22.60
2019,08,02,12,13,22.60
2019,08,02,12,14,22.50
2019,08,02,12,15,22.50
2019,08,02,12,16,22.50
2019,08,02,12,17,22.50
2019,08,02,12,18,22.50
2019,08,02,12,19,22.50
2019,08,02,12,20,22.60
2019,08,02,12,21,22.60
2019,08,02,12,22,22.60
2019,08,02,12,23,22.60
2019,08,02,12,24,22.50
2019,08,02,12,25,22.40
2019,08,02,12,26,22.30
2019,08,02,12,27,22.30
2019,08,02,12,28,22.40
2019,08,02,12,29,22.50
2019,08,02,12,30,22.70
2019,08,02,12,31,22.80
2019,08,02,12,32,23.00
2019,08,02,12,33,23.20
2019,08,02,12,34,23.40
2019,08,02,12,35,23.40
2019,08,02,12,36,23.40
2019,08,02,12,37,23.40
2019,08,02,12,38,23.50
2019,08,02,12,39,23.60
2019,08,02,12,40,23.50
2019,08,02,12,41,23.50
2019,08,02,12,42,23.60
2019,08,02,12,43,23.60
2019,08,02,12,44,23.60
2019,08,02,12,45,23.60
2019,08,02,12,46,23.60
2019,08,02,12,47,23.70
2019,08,02,12,48,23.70
2019,08,02,12,49,23.70
2019,08,02,12,50,23.80
2019,08,02,12,51,23.80
2019,08,02,12,52,23.80
2019,08,02,12,53,23.80
2019,08,02,12,54,23.70
2019,08,02,12,55,23.70
2019,08,02,12,56,23.70
2019,08,02,12,57,23.70
2019,08,02,12,58,23.70
2019,08,02,12,59,23.80
2019,08,02,13,00,23.80
2019,08,02,13,01,23.80
2019,08,02,13,02,23.70
2019,08,02,13,03,23.70
2019,08,02,13,04,23.70
2019,08,02,13,05,23.80
2019,08,02,13,06,23.90
2019,08,02,13,07,24.00
2019,08,02,13,08,24.00
2019,08,02,13,09,24.00
2019,08,02,13,10,24.00
2019,08,02,13,11,24.10
2019,08,02,13,12,24.10
2019,08,02,13,13,24.10
2019,08,02,13,14,24.10
2019,08,02,13,15,24.00
2019,08,02,13,16,24.10
2019,08,02,13,17,24.10
2019,08,02,13,18,24.20
2019,08,02,13,19,24.20
2019,08,02,13,20,24.30
2019,08,02,13,21,24.30
2019,08,02,13,22,24.30
2019,08,02,13,23,24.30
2019,08,02,13,24,24.30
2019,08,02,13,25,24.40
2019,08,02,13,26,24.40
2019,08,02,13,27,24.30
2019,08,02,13,28,24.20
2019,08,02,13,29,24.20
2019,08,02,13,30,24.10
2019,08,02,13,31,24.20
2019,08,02,13,32,24.10
2019,08,02,13,33,24.10
2019,08,02,13,34,24.10
2019,08,02,13,35,24.10
2019,08,02,13,36,24.00
2019,08,02,13,37,23.90
2019,08,02,13,38,23.80
2019,08,02,13,39,23.70
2019,08,02,13,40,23.70
2019,08,02,13,41,23.60
2019,08,02,13,42,23.50
2019,08,02,13,43,23.40
2019,08,02,13,44,23.30
2019,08,02,13,45,23.30
2019,08,02,13,46,23.20
2019,08,02,13,47,23.20
2019,08,02,13,48,23.10
2019,08,02,13,49,23.10
2019,08,02,13,50,23.20
2019,08,02,13,51,23.20
2019,08,02,13,52,23.30
2019,08,02,13,53,23.40
2019,08,02,13,54,23.50
2019,08,02,13,55,23.60
2019,08,02,13,56,23.70
2019,08,02,13,57,23.80
2019,08,02,13,58,23.90
2019,08,02,13,59,24.00
2019,08,02,14,00,24.20
2019,08,02,14,01,24.20
2019,08,02,14,02,24.30
2019,08,02,14,03,24.40
2019,08,02,14,04,24.50
2019,08,02,14,05,24.60
2019,08,02,14,06,24.70
2019,08,02,14,07,24.70
2019,08,02,14,08,24.80
2019,08,02,14,09,24.90
2019,08,02,14,10,25.00
2019,08,02,14,11,25.00
2019,08,02,14,12,25.10
2019,08,02,14,13,25.10
2019,08,02,14,14,25.10
2019,08,02,14,15,25.10
2019,08,02,14,16,25.20
2019,08,02,14,17,25.10
2019,08,02,14,18,25.10
2019,08,02,14,19,25.10
2019,08,02,14,20,25.10
2019,08,02,14,21,25.10
2019,08,02,14,22,25.20
2019,08,02,14,23,25.20
2019,08,02,14,24,25.30
2019,08,02,14,25,25.30
2019,08,02,14,26,25.30
2019,08,02,14,27,25.30
2019,08,02,14,28,25.30
2019,08,02,14,29,25.40
2019,08,02,14,30,25.50
2019,08,02,14,31,25.60
2019,08,02,14,32,25.70
2019,08,02,14,33,25.80
2019,08,02,14,34,25.90
2019,08,02,14,35,26.00
2019,08,02,14,36,26.10
2019,08,02,14,37,26.10
2019,08,02,14,38,26.20
2019,08,02,14,39,26.10
2019,08,02,14,40,26.00
2019,08,02,14,41,26.00
2019,08,02,14,42,26.00
2019,08,02,14,43,26.00
2019,08,02,14,44,26.00
2019,08,02,14,45,25.90
2019,08,02,14,46,25.80
2019,08,02,14,47,25.60
2019,08,02,14,48,25.50
2019,08,02,14,49,25.40
2019,08,02,14,50,25.30
2019,08,02,14,51,25.20
2019,08,02,14,52,25.00
2019,08,02,14,53,24.90
2019,08,02,14,54,24.80
2019,08,02,14,55,24.80
2019,08,02,14,56,24.70
2019,08,02,14,57,24.60
2019,08,02,14,58,24.50
2019,08,02,14,59,24.40
2019,08,02,15,00,24.40
2019,08,02,15,01,24.30
2019,08,02,15,02,24.30
2019,08,02,15,03,24.20
2019,08,02,15,04,24.20
2019,08,02,15,05,24.20
2019,08,02,15,06,24.20
2019,08,02,15,07,24.10
2019,08,02,15,08,24.00
2019,08,02,15,09,23.90
2019,08,02,15,10,23.80
2019,08,02,15,11,23.80
2019,08,02,15,12,23.70
2019,08,02,15,13,23.60
2019,08,02,15,14,23.60
2019,08,02,15,15,23.60
2019,08,02,15,16,23.50
2019,08,02,15,17,23.50
2019,08,02,15,18,23.50
2019,08,02,15,19,23.60
2019,08,02,15,20,23.60
2019,08,02,15,21,23.70
2019,08,02,15,22,23.90
2019,08,02,15,23,24.00
2019,08,02,15,24,24.10
2019,08,02,15,25,24.10
2019,08,02,15,26,24.10
2019,08,02,15,27,24.10
2019,08,02,15,28,24.10
2019,08,02,15,29,24.00
2019,08,02,15,30,24.00
2019,08,02,15,31,24.00
2019,08,02,15,32,24.00
2019,08,02,15,33,24.00
2019,08,02,15,34,24.10
2019,08,02,15,35,24.10
2019,08,02,15,36,24.20
2019,08,02,15,37,24.30
2019,08,02,15,38,24.40
2019,08,02,15,39,24.50
2019,08,02,15,40,24.60
2019,08,02,15,41,24.70
2019,08,02,15,42,24.70
2019,08,02,15,43,24.70
2019,08,02,15,44,24.70
2019,08,02,15,45,24.70
2019,08,02,15,46,24.70
2019,08,02,15,47,24.70
2019,08,02,15,48,24.70
2019,08,02,15,49,24.70
2019,08,02,15,50,24.70
2019,08,02,15,51,24.70
2019,08,02,15,52,24.80
2019,08,02,15,53,24.80
2019,08,02,15,54,24.90
2019,08,02,15,55,25.00
2019,08,02,15,56,25.10
2019,08,02,15,57,25.10
2019,08,02,15,58,25.20
2019,08,02,15,59,25.30
2019,08,02,16,00,25.40
2019,08,02,16,01,25.40
2019,08,02,16,02,25.40
2019,08,02,16,03,25.40
2019,08,02,16,04,25.40
2019,08,02,16,05,25.50
2019,08,02,16,06,25.50
2019,08,02,16,07,25.60
2019,08,02,16,08,25.60
2019,08,02,16,09,25.60
2019,08,02,16,10,25.70
2019,08,02,16,11,25.80
2019,08,02,16,12,25.80
2019,08,02,16,13,25.70
2019,08,02,16,14,25.70
2019,08,02,16,15,25.70
2019,08,02,16,16,25.70
2019,08,02,16,17,25.70
2019,08,02,16,18,25.70
2019,08,02,16,19,25.70
2019,08,02,16,20,25.70
2019,08,02,16,21,25.70
2019,08,02,16,22,25.70
2019,08,02,16,23,25.70
2019,08,02,16,24,25.70
2019,08,02,16,25,25.70
2019,08,02,16,26,25.70
2019,08,02,16,27,25.70
2019,08,02,16,28,25.70
2019,08,02,16,29,25.70
2019,08,02,16,30,25.60
2019,08,02,16,31,25.60
2019,08,02,16,32,25.60
2019,08,02,16,33,25.60
2019,08,02,16,34,25.60
2019,08,02,16,35,25.60
2019,08,02,16,36,25.70
2019,08,02,16,37,25.70
2019,08,02,16,38,25.80
2019,08,02,16,39,25.80
2019,08,02,16,40,25.90
2019,08,02,16,41,25.90
2019,08,02,16,42,25.90
2019,08,02,16,43,25.80
2019,08,02,16,44,25.80
2019,08,02,16,45,25.80
2019,08,02,16,46,25.80
2019,08,02,16,47,25.80
2019,08,02,16,48,25.70
2019,08,02,16,49,25.70
2019,08,02,16,50,25.70
2019,08,02,16,51,25.80
2019,08,02,16,52,25.80
2019,08,02,16,53,25.80
2019,08,02,16,54,25.80
2019,08,02,16,55,25.90
2019,08,02,16,56,25.90
2019,08,02,16,57,25.90
2019,08,02,16,58,25.80
2019,08,02,16,59,25.80
2019,08,02,17,00,25.70
2019,08,02,17,01,25.70
2019,08,02,17,02,25.60
2019,08,02,17,03,25.60
2019,08,02,17,04,25.60
2019,08,02,17,05,25.50
2019,08,02,17,06,25.50
2019,08,02,17,07,25.50
2019,08,02,17,08,25.50
2019,08,02,17,09,25.50
2019,08,02,17,10,25.50
2019,08,02,17,11,25.50
2019,08,02,17,12,25.50
2019,08,02,17,13,25.40
2019,08,02,17,14,25.50
2019,08,02,17,15,25.40
2019,08,02,17,16,25.40
2019,08,02,17,17,25.40
2019,08,02,17,18,25.40
2019,08,02,17,19,25.40